Location: Arbocrest Acres
(39.2134°N, 84.4144°W)
Time: 09:16:12
(UTC+00:00)

N. Korean satellite - Visible Passes

Search period start: 08 December 2022 00:00
Search period end: 18 December 2022 00:00
Orbit: 421 x 452 km, 97.3° (Epoch: 07 December)

Date Brightness Start Highest point End Pass type
(mag) Time Alt. Az. Time Alt. Az. Time Alt. Az.
08 Dec 9.0 10:14:47 10° NE 10:17:24 21° E 10:19:59 10° SE visible
08 Dec 7.8 11:47:22 10° NNW 11:49:45 18° WNW 11:52:06 10° WSW visible
09 Dec 6.2 11:07:32 10° N 11:10:52 63° WNW 11:14:08 10° SSW visible
09 Dec 9.8 23:09:26 10° SW 23:11:15 14° W 23:13:04 10° WNW visible
10 Dec 8.2 10:28:39 10° NNE 10:31:42 32° E 10:34:42 10° SSE visible
10 Dec 8.3 12:02:27 10° NW 12:03:51 12° WNW 12:05:15 10° W visible
11 Dec 6.8 11:21:48 10° N 11:24:56 38° WNW 11:28:02 10° SW visible
12 Dec 7.1 10:42:28 10° NNE 10:45:44 51° E 10:48:57 10° S visible
12 Dec 8.8 22:42:54 10° SSW 22:45:53 29° W 22:48:55 10° NW visible
13 Dec 9.5 10:04:20 10° ENE 10:06:16 15° E 10:08:11 10° SE visible
13 Dec 7.4 11:36:47 15° NNW 11:38:45 25° WNW 11:41:30 10° SW visible
14 Dec 6.2 10:58:09 33° NNE 10:59:32 85° E 11:02:49 10° S visible
14 Dec 9.5 22:57:10 10° SW 22:59:42 19° W 23:02:14 10° NW visible
15 Dec 8.9 10:19:00 19° ENE 10:20:01 22° E 10:22:38 10° SSE visible
15 Dec 7.9 11:52:23 17° WNW 11:52:23 17° WNW 11:54:30 10° WSW visible
16 Dec 6.3 11:13:00 58° WNW 11:13:04 58° WNW 11:16:17 10° SSW visible
16 Dec 9.8 23:11:37 10° WSW 23:13:17 13° W 23:14:57 10° WNW visible
17 Dec 8.1 10:33:30 33° E 10:33:31 33° E 10:36:31 10° SSE visible
